TimePDT,TemperatureF,Dew PointF,Humidity,Sea Level PressureIn,VisibilityMPH,Wind Direction,Wind SpeedMPH,Gust SpeedMPH,PrecipitationIn,Events,Conditions,WindDirDegrees,DateUTC
12:53 AM,48.0,23.0,37,29.96,10.0,SSE,6.9,-,N/A,,Partly Cloudy,150,2012-10-08 07:53:00
1:53 AM,46.0,21.9,39,29.97,10.0,SSE,9.2,-,N/A,,Partly Cloudy,160,2012-10-08 08:53:00
2:53 AM,45.0,21.9,40,29.97,10.0,SSE,5.8,-,N/A,,Partly Cloudy,150,2012-10-08 09:53:00
3:53 AM,39.9,21.9,49,29.97,10.0,SSE,3.5,-,N/A,,Partly Cloudy,160,2012-10-08 10:53:00
4:53 AM,45.0,26.1,48,29.96,10.0,SSE,8.1,-,N/A,,Partly Cloudy,160,2012-10-08 11:53:00
5:53 AM,43.0,27.0,53,29.95,10.0,SSE,8.1,-,N/A,,Partly Cloudy,160,2012-10-08 12:53:00
6:53 AM,43.0,28.0,56,29.95,10.0,SSE,5.8,-,N/A,,Scattered Clouds,160,2012-10-08 13:53:00
7:53 AM,43.0,28.0,56,29.97,10.0,Calm,Calm,-,N/A,,Mostly Cloudy,0,2012-10-08 14:53:00
8:53 AM,48.0,28.9,48,29.99,10.0,Calm,Calm,-,N/A,,Mostly Cloudy,0,2012-10-08 15:53:00
9:53 AM,54.0,28.0,37,29.96,10.0,South,5.8,-,N/A,,Mostly Cloudy,190,2012-10-08 16:53:00
10:53 AM,59.0,26.1,28,29.96,9.0,SW,5.8,-,N/A,,Mostly Cloudy,230,2012-10-08 17:53:00
11:53 AM,62.1,24.1,23,29.95,10.0,SSW,8.1,-,N/A,,Scattered Clouds,210,2012-10-08 18:53:00
12:53 PM,64.9,23.0,20,29.93,10.0,West,5.8,-,N/A,,Mostly Cloudy,260,2012-10-08 19:53:00
1:53 PM,66.9,23.0,19,29.91,10.0,SW,10.4,-,N/A,,Scattered Clouds,230,2012-10-08 20:53:00
2:53 PM,68.0,24.1,19,29.90,10.0,SW,10.4,-,N/A,,Partly Cloudy,230,2012-10-08 21:53:00
3:53 PM,69.1,25.0,19,29.90,10.0,WSW,11.5,-,N/A,,Partly Cloudy,240,2012-10-08 22:53:00
4:53 PM,68.0,25.0,20,29.88,10.0,WSW,11.5,-,N/A,,Partly Cloudy,250,2012-10-08 23:53:00
5:53 PM,64.0,25.0,23,29.90,10.0,SSW,4.6,-,N/A,,Scattered Clouds,210,2012-10-09 00:53:00
6:53 PM,59.0,26.6,29,29.90,10.0,SSW,5.8,-,N/A,,Scattered Clouds,210,2012-10-09 01:53:00
7:53 PM,57.0,25.0,29,29.92,10.0,SW,8.1,-,N/A,,Scattered Clouds,220,2012-10-09 02:53:00
8:53 PM,54.0,25.0,33,29.94,10.0,SW,8.1,-,N/A,,Scattered Clouds,230,2012-10-09 03:53:00
9:53 PM,50.0,25.0,38,29.95,10.0,SW,5.8,-,N/A,,Scattered Clouds,230,2012-10-09 04:53:00
10:53 PM,50.0,26.1,39,29.95,10.0,SW,6.9,-,N/A,,Scattered Clouds,230,2012-10-09 05:53:00
11:53 PM,50.0,26.1,39,29.96,10.0,ENE,3.5,-,N/A,,Partly Cloudy,70,2012-10-09 06:53:00